Time,TemperatureF,DewpointF,PressureIn,WindDirection,WindDirectionDegrees,WindSpeedMPH,WindSpeedGustMPH,Humidity,HourlyPrecipIn,Conditions,Clouds,dailyrainin,SolarRadiationWatts/m^2,SoftwareType,DateUTC
2013-05-17 00:00:00,71.8,60.2,29.95,NE,44,8.0,10.0,67,0.00,,,0.00,0,Wunderground v.1.15,2013-05-17 10:00:00,
2013-05-17 00:30:00,69.3,56.6,29.94,East,94,5.0,5.0,64,0.00,,,0.00,0,Wunderground v.1.15,2013-05-17 10:30:00,
2013-05-17 01:00:00,70.6,55.1,29.93,ESE,121,5.0,6.0,58,0.00,,,0.00,0,Wunderground v.1.15,2013-05-17 11:00:00,
2013-05-17 01:30:00,73.0,54.9,29.93,East,79,2.0,7.0,53,0.00,,,0.00,0,Wunderground v.1.15,2013-05-17 11:30:00,
2013-05-17 02:00:00,70.9,57.7,29.92,SE,126,3.0,10.0,63,0.00,,,0.00,0,Wunderground v.1.15,2013-05-17 12:00:00,
2013-05-17 02:30:00,67.8,55.6,29.90,NE,54,3.0,3.0,65,0.00,,,0.00,0,Wunderground v.1.15,2013-05-17 12:30:00,
2013-05-17 03:00:00,66.6,54.9,29.90,East,88,3.0,5.0,66,0.00,,,0.00,0,Wunderground v.1.15,2013-05-17 13:00:00,
2013-05-17 03:30:00,69.8,57.1,29.90,ENE,69,8.0,9.0,64,0.00,,,0.00,0,Wunderground v.1.15,2013-05-17 13:30:00,
2013-05-17 04:00:00,70.1,57.4,29.90,East,89,6.0,6.0,64,0.00,,,0.00,0,Wunderground v.1.15,2013-05-17 14:00:00,
2013-05-17 04:30:00,70.3,58.8,29.90,East,84,6.0,9.0,67,0.00,,,0.00,0,Wunderground v.1.15,2013-05-17 14:30:00,
2013-05-17 05:00:00,69.3,59.1,29.90,ENE,76,6.0,6.0,70,0.00,,,0.00,0,Wunderground v.1.15,2013-05-17 15:00:00,
2013-05-17 05:30:00,69.3,59.1,29.91,ENE,71,8.0,8.0,70,0.00,,,0.00,0,Wunderground v.1.15,2013-05-17 15:30:00,
2013-05-17 06:00:00,69.6,59.4,29.91,East,91,6.0,6.0,70,0.00,,,0.00,12,Wunderground v.1.15,2013-05-17 16:00:00,
2013-05-17 06:30:00,69.9,58.4,29.92,East,87,3.0,3.0,67,0.00,,,0.00,98,Wunderground v.1.15,2013-05-17 16:30:00,
2013-05-17 07:00:00,72.0,57.4,29.91,East,98,7.0,7.0,60,0.00,,,0.00,202,Wunderground v.1.15,2013-05-17 17:00:00,
2013-05-17 07:30:00,74.9,59.1,29.92,ESE,103,5.0,7.0,58,0.00,,,0.00,323,Wunderground v.1.15,2013-05-17 17:30:00,
2013-05-17 08:00:00,76.1,59.3,29.91,ENE,78,7.0,7.0,56,0.00,,,0.00,431,Wunderground v.1.15,2013-05-17 18:00:00,
2013-05-17 08:30:00,75.6,59.8,29.92,ENE,61,13.0,13.0,58,0.00,,,0.00,534,Wunderground v.1.15,2013-05-17 18:30:00,
2013-05-17 09:00:00,78.8,56.9,29.91,East,93,11.0,11.0,47,0.00,,,0.00,629,Wunderground v.1.15,2013-05-17 19:00:00,
2013-05-17 09:30:00,79.6,58.2,29.91,NE,48,10.0,10.0,48,0.00,,,0.00,719,Wunderground v.1.15,2013-05-17 19:30:00,
2013-05-17 10:00:00,80.9,58.8,29.91,ENE,63,12.0,16.0,47,0.00,,,0.00,800,Wunderground v.1.15,2013-05-17 20:00:00,
2013-05-17 10:30:00,80.9,57.6,29.91,ENE,65,12.0,12.0,45,0.00,,,0.00,693,Wunderground v.1.15,2013-05-17 20:30:00,
2013-05-17 11:00:00,82.4,57.7,29.91,NE,55,10.0,14.0,43,0.00,,,0.00,954,Wunderground v.1.15,2013-05-17 21:00:00,
2013-05-17 11:30:00,82.0,58.6,29.91,NE,36,12.0,12.0,45,0.00,,,0.00,963,Wunderground v.1.15,2013-05-17 21:30:00,
2013-05-17 12:00:00,82.8,59.3,29.91,NE,48,11.0,11.0,45,0.00,,,0.00,519,Wunderground v.1.15,2013-05-17 22:00:00,
2013-05-17 12:30:00,82.8,59.9,29.90,North,355,5.0,5.0,46,0.00,,,0.00,315,Wunderground v.1.15,2013-05-17 22:30:00,
2013-05-17 13:00:00,80.3,63.7,29.90,NW,319,4.0,9.0,57,0.00,,,0.00,169,Wunderground v.1.15,2013-05-17 23:00:00,
2013-05-17 13:30:00,80.3,63.2,29.90,NW,319,3.0,4.0,56,0.00,,,0.00,193,Wunderground v.1.15,2013-05-17 23:30:00,
2013-05-17 14:00:00,78.6,62.6,29.89,NW,314,4.0,4.0,58,0.00,,,0.00,137,Wunderground v.1.15,2013-05-18 00:00:00,
2013-05-17 14:30:00,77.0,64.8,29.89,WSW,240,2.0,3.0,66,0.00,,,0.00,269,Wunderground v.1.15,2013-05-18 00:30:00,
2013-05-17 15:00:00,76.3,65.8,29.89,WNW,287,1.0,1.0,70,0.10,,,0.06,93,Wunderground v.1.15,2013-05-18 01:00:00,
2013-05-17 15:30:00,74.9,63.6,29.88,North,5,6.0,6.0,68,0.00,,,0.07,100,Wunderground v.1.15,2013-05-18 01:30:00,
2013-05-17 16:00:00,76.5,62.0,29.86,NNE,17,8.0,8.0,61,0.00,,,0.07,288,Wunderground v.1.15,2013-05-18 02:00:00,
2013-05-17 16:30:00,78.8,64.2,29.86,NW,304,7.0,7.0,61,0.00,,,0.07,598,Wunderground v.1.15,2013-05-18 02:30:00,
2013-05-17 17:00:00,77.4,61.9,29.87,NNE,15,3.0,3.0,59,0.00,,,0.07,185,Wunderground v.1.15,2013-05-18 03:00:00,
2013-05-17 17:30:00,78.1,64.0,29.87,NW,319,2.0,2.0,62,0.00,,,0.07,135,Wunderground v.1.15,2013-05-18 03:30:00,
2013-05-17 18:00:00,77.6,62.6,29.88,ENE,76,5.0,6.0,60,0.00,,,0.07,58,Wunderground v.1.15,2013-05-18 04:00:00,
2013-05-17 18:30:00,74.0,61.5,29.89,ENE,66,7.0,7.0,65,0.00,,,0.07,12,Wunderground v.1.15,2013-05-18 04:30:00,
2013-05-17 19:00:00,73.7,59.9,29.90,NE,40,5.0,5.0,62,0.00,,,0.07,0,Wunderground v.1.15,2013-05-18 05:00:00,
2013-05-17 19:30:00,73.5,61.0,29.90,ENE,75,9.0,9.0,65,0.00,,,0.07,0,Wunderground v.1.15,2013-05-18 05:30:00,
2013-05-17 20:00:00,73.5,61.4,29.91,East,83,5.0,5.0,66,0.00,,,0.07,0,Wunderground v.1.15,2013-05-18 06:00:00,
2013-05-17 20:30:00,73.0,60.1,29.91,NNE,30,7.0,8.0,64,0.00,,,0.07,0,Wunderground v.1.15,2013-05-18 06:30:00,
2013-05-17 21:00:00,72.3,59.0,29.92,ENE,68,5.0,7.0,63,0.00,,,0.07,0,Wunderground v.1.15,2013-05-18 07:00:00,
2013-05-17 21:30:00,71.8,59.8,29.92,East,94,5.0,8.0,66,0.00,,,0.07,0,Wunderground v.1.15,2013-05-18 07:30:00,
2013-05-17 22:00:00,70.9,60.2,29.92,NE,47,6.0,6.0,69,0.00,,,0.07,0,Wunderground v.1.15,2013-05-18 08:00:00,
2013-05-17 22:30:00,71.1,59.6,29.92,ENE,61,7.0,7.0,67,0.00,,,0.07,0,Wunderground v.1.15,2013-05-18 08:30:00,
2013-05-17 23:00:00,71.3,59.8,29.91,ENE,61,5.0,5.0,67,0.00,,,0.07,0,Wunderground v.1.15,2013-05-18 09:00:00,
2013-05-17 23:30:00,69.9,59.7,29.91,ENE,78,2.0,2.0,70,0.00,,,0.07,0,Wunderground v.1.15,2013-05-18 09:30:00,